| time (UTC) | temp F | wind direction | speed MPH | gust MPH | rain 1hr in | rain 24hr in | rain mn in | humidity % | barometer mb |
| 20260904143102 | 77 | 63 | 0.0 | 0.0 | 0.01 | 1.20 | 0.38 | 93 | 1016.7 |
| 20260904141559 | 77 | 64 | 0.0 | 0.0 | 0.01 | 1.20 | 0.38 | 93 | 1016.7 |
| 20260904134602 | 78 | 58 | 0.0 | 6.0 | 0.00 | 1.19 | 0.37 | 93 | 1017.0 |
| 20260904133101 | 80 | 145 | 0.0 | 2.0 | 0.00 | 1.19 | 0.37 | 93 | 1016.9 |
| 20260904131554 | 80 | 133 | 0.0 | 0.0 | 0.00 | 1.19 | 0.37 | 93 | 1016.2 |
| 20260904130052 | 80 | 132 | 0.0 | 2.0 | 0.02 | 1.19 | 0.37 | 94 | 1016.0 |
| 20260904124550 | 80 | 133 | 0.0 | 1.0 | 0.37 | 1.19 | 0.37 | 94 | 1016.2 |
| 20260904123047 | 79 | 132 | 1.0 | 3.0 | 0.37 | 1.19 | 0.37 | 94 | 1016.4 |
| 20260904121546 | 78 | 155 | 0.0 | 0.0 | 0.37 | 1.19 | 0.37 | 93 | 1016.2 |
| 20260904120053 | 77 | 163 | 0.0 | 5.0 | 0.35 | 1.17 | 0.35 | 94 | 1015.8 |
| 20260904114540 | 0 | 0.0 | 0.0 | 0.00 | 0.82 | 0.00 | 1016.2 | ||
| 20260904113036 | 0 | 0.0 | 0.0 | 0.00 | 0.82 | 0.00 | 1015.5 | ||
| 20260904111532 | 0 | 0.0 | 0.0 | 0.00 | 0.82 | 0.00 | 1015.4 | ||
| 20260904110026 | 0 | 0.0 | 0.0 | 0.00 | 0.82 | 0.00 | 1015.1 | ||
| 20260904104523 | 0 | 0.0 | 0.0 | 0.00 | 0.82 | 0.00 | 1015.1 | ||
| 20260904103020 | 0 | 0.0 | 0.0 | 0.00 | 0.82 | 0.00 | 1014.8 | ||
| 20260904101515 | 0 | 0.0 | 0.0 | 0.00 | 0.82 | 0.00 | 1014.6 | ||
| 20260904100009 | 0 | 0.0 | 0.0 | 0.00 | 0.82 | 0.00 | 1014.6 | ||
| 20260904094511 | 0 | 0.0 | 0.0 | 0.00 | 0.82 | 0.00 | 1014.2 | ||
| 20260904093000 | 0 | 0.0 | 0.0 | 0.00 | 0.82 | 0.00 | 1014.4 | ||
| 20260904091557 | 0 | 0.0 | 0.0 | 0.00 | 0.82 | 0.00 | 1014.4 | ||
| 20260904090053 | 0 | 0.0 | 0.0 | 0.00 | 0.82 | 0.00 | 1014.2 | ||
| 20260904084548 | 0 | 0.0 | 0.0 | 0.00 | 0.82 | 0.00 | 1014.1 | ||
| 20260904083044 | 0 | 0.0 | 0.0 | 0.00 | 0.82 | 0.00 | 1014.2 | ||
| 20260904081539 | 0 | 0.0 | 0.0 | 0.00 | 0.82 | 0.00 | 1014.3 | ||
| 20260904080035 | 0 | 0.0 | 0.0 | 0.00 | 0.82 | 0.00 | 1014.1 | ||
| 20260904074530 | 0 | 0.0 | 0.0 | 0.00 | 0.82 | 0.00 | 1014.1 | ||
| 20260904073046 | 0 | 0.0 | 0.0 | 0.00 | 0.82 | 0.00 | 1014.1 | ||
| 20260904071522 | 0 | 0.0 | 0.0 | 0.00 | 0.82 | 0.00 | 1014.1 | ||
| 20260904070017 | 0 | 0.0 | 0.0 | 0.00 | 0.82 | 0.00 | 1014.1 | ||
| 20260904064519 | 78 | 139 | 0.0 | 0.0 | 0.00 | 0.82 | 0.00 | 94 | 1014.3 |
| 20260904063011 | 78 | 136 | 0.0 | 0.0 | 0.00 | 0.82 | 0.00 | 94 | 1014.5 |
| 20260904061512 | 78 | 137 | 0.0 | 0.0 | 0.00 | 0.82 | 0.00 | 94 | 1014.5 |
| 20260904060009 | 78 | 136 | 0.0 | 0.0 | 0.00 | 0.82 | 0.00 | 94 | 1014.6 |
| 20260904054510 | 78 | 136 | 0.0 | 0.0 | 0.00 | 0.82 | 0.00 | 94 | 1014.7 |
| 20260904053005 | 78 | 136 | 0.0 | 0.0 | 0.00 | 0.82 | 0.00 | 94 | 1014.9 |
| 20260904051506 | 78 | 139 | 0.0 | 0.0 | 0.00 | 0.82 | 0.00 | 94 | 1014.8 |
| 20260904050103 | 78 | 136 | 0.0 | 0.0 | 0.00 | 0.82 | 0.00 | 94 | 1015.0 |
| 20260904044557 | 78 | 139 | 0.0 | 0.0 | 0.00 | 0.82 | 0.00 | 94 | 1015.2 |
| 20260904043055 | 78 | 138 | 0.0 | 0.0 | 0.00 | 0.82 | 0.00 | 94 | 1015.5 |
| 20260904041601 | 78 | 138 | 0.0 | 0.0 | 0.00 | 0.82 | 0.00 | 94 | 1015.5 |
| 20260904040047 | 78 | 136 | 0.0 | 0.0 | 0.00 | 0.82 | 0.00 | 94 | 1015.4 |
| 20260904034547 | 78 | 139 | 0.0 | 0.0 | 0.00 | 0.82 | 0.82 | 94 | 1015.4 |
| 20260904033059 | 78 | 137 | 0.0 | 0.0 | 0.00 | 0.82 | 0.82 | 94 | 1015.7 |
| 20260904031541 | 78 | 139 | 0.0 | 0.0 | 0.00 | 0.82 | 0.82 | 94 | 1015.7 |
| 20260904030039 | 78 | 139 | 0.0 | 0.0 | 0.00 | 0.82 | 0.82 | 94 | 1015.6 |
| 20260904024539 | 78 | 139 | 0.0 | 0.0 | 0.00 | 0.82 | 0.82 | 94 | 1015.5 |
| 20260904023040 | 78 | 139 | 0.0 | 0.0 | 0.00 | 0.82 | 0.82 | 94 | 1015.4 |
| 20260904021539 | 77 | 136 | 0.0 | 0.0 | 0.00 | 0.82 | 0.82 | 94 | 1015.4 |
| 20260904020036 | 78 | 136 | 0.0 | 0.0 | 0.00 | 0.82 | 0.82 | 94 | 1015.3 |
| 20260904014555 | 78 | 136 | 0.0 | 0.0 | 0.00 | 0.82 | 0.82 | 94 | 1015.3 |
| 20260904013035 | 77 | 136 | 0.0 | 0.0 | 0.00 | 0.82 | 0.82 | 94 | 1015.5 |
| 20260904011535 | 77 | 139 | 0.0 | 0.0 | 0.00 | 0.82 | 0.82 | 94 | 1015.4 |
| 20260904010034 | 78 | 139 | 0.0 | 0.0 | 0.00 | 0.82 | 0.82 | 94 | 1015.1 |
| 20260904004533 | 78 | 139 | 0.0 | 0.0 | 0.00 | 0.82 | 0.82 | 94 | 1015.0 |
| 20260904003033 | 78 | 136 | 0.0 | 0.0 | 0.00 | 0.82 | 0.82 | 94 | 1014.8 |
| 20260904001532 | 78 | 136 | 0.0 | 0.0 | 0.00 | 0.82 | 0.82 | 94 | 1014.8 |
| 20260904000031 | 78 | 139 | 0.0 | 0.0 | 0.00 | 0.82 | 0.82 | 94 | 1014.8 |
| 20260903234531 | 78 | 137 | 0.0 | 0.0 | 0.00 | 0.82 | 0.82 | 94 | 1014.6 |
| 20260903233031 | 78 | 139 | 0.0 | 0.0 | 0.00 | 0.82 | 0.82 | 94 | 1014.4 |
| 20260903231529 | 78 | 136 | 0.0 | 0.0 | 0.00 | 0.82 | 0.82 | 94 | 1014.5 |
| 20260903230045 | 78 | 139 | 0.0 | 0.0 | 0.00 | 0.82 | 0.82 | 94 | 1014.5 |
| 20260903224530 | 77 | 137 | 0.0 | 0.0 | 0.00 | 0.82 | 0.82 | 94 | 1014.4 |
| 20260903223028 | 77 | 139 | 0.0 | 0.0 | 0.12 | 0.82 | 0.82 | 93 | 1014.3 |
| 20260903221528 | 77 | 136 | 0.0 | 0.0 | 0.65 | 0.82 | 0.82 | 93 | 1014.3 |
| 20260903220027 | 77 | 137 | 0.0 | 0.0 | 0.69 | 0.82 | 0.82 | 93 | 1014.3 |
| 20260903214537 | 78 | 138 | 0.0 | 0.0 | 0.76 | 0.82 | 0.82 | 93 | 1013.9 |
| 20260903213025 | 77 | 276 | 0.0 | 1.0 | 0.63 | 0.69 | 0.69 | 92 | 1014.3 |
| 20260903211522 | 79 | 273 | 0.0 | 0.0 | 0.11 | 0.17 | 0.17 | 90 | 1014.6 |
| 20260903210022 | 82 | 310 | 0.0 | 0.0 | 0.07 | 0.13 | 0.13 | 86 | 1014.2 |
| 20260903204525 | 85 | 242 | 0.0 | 0.0 | 0.00 | 0.06 | 0.06 | 81 | 1013.9 |
| 20260903203020 | 91 | 172 | 0.0 | 0.0 | 0.00 | 0.06 | 0.06 | 74 | 1013.5 |
| 20260903201529 | 91 | 164 | 0.0 | 0.0 | 0.00 | 0.06 | 0.06 | 73 | 1013.4 |
| 20260903200020 | 91 | 143 | 0.0 | 1.0 | 0.00 | 0.06 | 0.06 | 74 | 1013.3 |
| 20260903194521 | 92 | 125 | 0.0 | 0.0 | 0.00 | 1.07 | 0.06 | 72 | 1013.4 |
| 20260903193016 | 93 | 148 | 0.0 | 0.0 | 0.00 | 1.07 | 0.06 | 71 | 1013.8 |
| 20260903191514 | 92 | 193 | 0.0 | 1.0 | 0.00 | 1.07 | 0.06 | 71 | 1013.6 |
| 20260903190013 | 92 | 129 | 0.0 | 1.0 | 0.00 | 1.07 | 0.06 | 71 | 1013.7 |
| 20260903184512 | 91 | 186 | 0.0 | 1.0 | 0.00 | 1.07 | 0.06 | 72 | 1013.9 |
| 20260903183011 | 91 | 177 | 0.0 | 0.0 | 0.00 | 1.07 | 0.06 | 73 | 1013.8 |
| 20260903181510 | 90 | 203 | 0.0 | 1.0 | 0.00 | 1.07 | 0.06 | 74 | 1013.9 |
| 20260903180033 | 93 | 208 | 0.0 | 1.0 | 0.00 | 1.07 | 0.06 | 70 | 1014.0 |
| 20260903174507 | 93 | 187 | 0.0 | 1.0 | 0.00 | 1.07 | 0.06 | 68 | 1014.3 |
| 20260903173005 | 93 | 229 | 0.0 | 1.0 | 0.00 | 1.07 | 0.06 | 67 | 1014.5 |
| 20260903171505 | 93 | 155 | 0.0 | 0.0 | 0.00 | 1.07 | 0.06 | 69 | 1014.5 |
| 20260903170208 | 92 | 143 | 0.0 | 0.0 | 0.00 | 1.07 | 0.06 | 73 | 1014.9 |
| 20260903164556 | 90 | 167 | 0.0 | 0.0 | 0.00 | 1.12 | 0.06 | 78 | 1015.2 |
| 20260903163051 | 90 | 200 | 0.0 | 0.0 | 0.00 | 1.12 | 0.06 | 79 | 1015.2 |
| 20260903161603 | 88 | 142 | 0.0 | 1.0 | 0.01 | 1.12 | 0.06 | 83 | 1015.5 |
| 20260903160049 | 87 | 222 | 0.0 | 0.0 | 0.05 | 1.12 | 0.06 | 84 | 1015.7 |
| 20260903154553 | 86 | 149 | 0.0 | 0.0 | 0.05 | 1.17 | 0.06 | 85 | 1015.8 |
| 20260903153045 | 83 | 248 | 0.0 | 0.0 | 0.06 | 1.17 | 0.06 | 88 | 1015.9 |
| 20260903151549 | 82 | 214 | 0.0 | 1.0 | 0.05 | 1.15 | 0.05 | 88 | 1015.7 |
| 20260903150044 | 84 | 183 | 0.0 | 1.0 | 0.01 | 1.12 | 0.01 | 84 | 1015.7 |
| 20260903144540 | 85 | 240 | 0.0 | 0.0 | 0.01 | 1.12 | 0.01 | 85 | 1015.6 |